Weather History for Ortonville, MN

Change the Weather History Date:

Tuesday, May 7, 2013

  Actual Average (KAQP) Record (KAQP)
Temperature  
Mean Temperature 60 °F -  
Max Temperature 77 °F 63 °F 131 °F (1997)
Min Temperature 42 °F 40 °F 6 °F (2000)
Degree Days  
Heating Degree Days 6    
Growing Degree Days 10 (Base 50)    
Moisture  
Dew Point 42 °F    
Average Humidity 56    
Maximum Humidity 87    
Minimum Humidity 25    
Precipitation  
Precipitation 0.00 in - - ()
Sea Level Pressure  
Sea Level Pressure 29.99 in    
Wind  
Wind Speed 3 mph (South)    
Max Wind Speed 13 mph    
Max Gust Speed 18 mph    
Visibility 10 miles    
Events Rain    
Averages and records for this station are not official NWS values.
T = Trace of Precipitation, MM = Missing Value Source: NWS Daily Summary

Daily Weather History Graph

Daily Weather History Graph

Search for Another Location

Airport:

Trip Planner

Search our weather history database for the weather conditions in past years. The results will help you decide how hot, cold, wet, or windy it might be!

Date:

Astronomy

May. 07, 2013 Rise Set
Actual Time 6:05 AM CDT 8:39 PM CDT
Civil Twilight 5:31 AM CDT 9:13 PM CDT
Nautical Twilight 4:50 AM CDT 9:55 PM CDT
Astronomical Twilight 4:02 AM CDT 10:43 PM CDT
Moon 4:46 AM CDT (5/7) 6:35 PM CDT (5/7)
Length of Visible Light 15h 41m
Length of Day
14h 34m
Waning Crescent, 5% of the Moon is Illuminated
May 7
Waning Crescent
May 9
New
May 17
First Quarter
May 24
Full
May 31
Last Quarter

Hourly Weather History & Observations

Time (CDT) Temp. Windchill Dew Point Humidity Pressure Visibility Wind Dir Wind Speed Gust Speed Precip Events Conditions
12:14 AM 53.6 °F - 42.8 °F 67% 30.04 in 10.0 mi Calm Calm - N/A   Clear
12:34 AM 50.0 °F - 42.8 °F 76% 30.04 in 10.0 mi Calm Calm - N/A   Clear
12:53 AM 48.2 °F - 42.8 °F 82% 30.04 in 10.0 mi Calm Calm - N/A   Clear
1:14 AM 48.2 °F - 42.8 °F 82% 30.04 in 10.0 mi SW 4.6 mph - N/A   Clear
1:34 AM 48.2 °F - 42.8 °F 82% 30.04 in 10.0 mi Calm Calm - N/A   Clear
1:53 AM 46.4 °F - 42.8 °F 87% 30.03 in 10.0 mi Calm Calm - N/A   Clear
2:14 AM 48.2 °F - 42.8 °F 82% 30.03 in 10.0 mi Calm Calm - N/A   Clear
2:34 AM 46.4 °F - 42.8 °F 87% 30.03 in 10.0 mi Calm Calm - N/A   Clear
2:53 AM 46.4 °F - 41.0 °F 81% 30.03 in 10.0 mi Calm Calm - N/A   Clear
3:14 AM 44.6 °F - 41.0 °F 87% 30.04 in 10.0 mi Calm Calm - N/A   Clear
3:33 AM 44.6 °F - 41.0 °F 87% 30.03 in 10.0 mi Calm Calm - N/A   Clear
3:54 AM 44.6 °F - 41.0 °F 87% 30.03 in 10.0 mi Calm Calm - N/A   Clear
4:14 AM 44.6 °F - 41.0 °F 87% 30.04 in 10.0 mi Calm Calm - N/A   Clear
4:33 AM 42.8 °F - 39.2 °F 87% 30.04 in 10.0 mi Calm Calm - N/A   Clear
5:14 AM 42.8 °F - 39.2 °F 87% 30.04 in 10.0 mi Calm Calm - N/A   Clear
5:33 AM 42.8 °F - 39.2 °F 87% 30.04 in 10.0 mi Calm Calm - N/A   Clear
5:54 AM 42.8 °F - 39.2 °F 87% 30.04 in 10.0 mi Calm Calm - N/A   Clear
6:14 AM 44.6 °F - 41.0 °F 87% 30.04 in 10.0 mi Calm Calm - N/A   Clear
6:33 AM 42.8 °F - 39.2 °F 87% 30.04 in 7.0 mi Calm Calm - N/A   Clear
6:54 AM 42.8 °F - 39.2 °F 87% 30.04 in 10.0 mi Calm Calm - N/A   Clear
7:14 AM 44.6 °F - 41.0 °F 87% 30.05 in 7.0 mi Calm Calm - N/A   Clear
7:33 AM 46.4 °F 45.2 °F 42.8 °F 87% 30.05 in 10.0 mi SE 3.5 mph - N/A   Clear
7:54 AM 48.2 °F - 42.8 °F 82% 30.05 in 10.0 mi SE 3.5 mph - N/A   Clear
8:13 AM 50.0 °F - 44.6 °F 82% 30.05 in 10.0 mi SE 3.5 mph - N/A   Clear
8:34 AM 51.8 °F - 44.6 °F 76% 30.05 in 10.0 mi SSE 4.6 mph - N/A   Clear
8:53 AM 53.6 °F - 44.6 °F 72% 30.05 in 10.0 mi SE 3.5 mph - N/A   Clear
9:14 AM 55.4 °F - 46.4 °F 72% 30.05 in 10.0 mi SE 4.6 mph - N/A   Clear
9:34 AM 57.2 °F - 46.4 °F 67% 30.05 in 10.0 mi SSE 5.8 mph - N/A   Clear
9:54 AM 60.8 °F - 46.4 °F 59% 30.04 in 10.0 mi SE 5.8 mph - N/A   Clear
10:14 AM 62.6 °F - 46.4 °F 55% 30.04 in 10.0 mi SSE 5.8 mph - N/A   Clear
10:34 AM 64.4 °F - 46.4 °F 52% 30.03 in 10.0 mi SE 6.9 mph - N/A   Clear
10:54 AM 64.4 °F - 46.4 °F 52% 30.03 in 10.0 mi SSE 8.1 mph - N/A   Clear
11:13 AM 66.2 °F - 44.6 °F 46% 30.03 in 10.0 mi SE 9.2 mph - N/A   Clear
11:34 AM 66.2 °F - 44.6 °F 46% 30.02 in 10.0 mi SSE 8.1 mph 16.1 mph N/A   Clear
11:53 AM 69.8 °F - 42.8 °F 38% 30.02 in 10.0 mi SSE 6.9 mph - N/A   Clear
12:14 PM 69.8 °F - 42.8 °F 38% 30.01 in 10.0 mi SSE 10.4 mph - N/A   Clear
12:33 PM 69.8 °F - 41.0 °F 35% 30.01 in 10.0 mi SSE 12.7 mph - N/A   Clear
12:54 PM 71.6 °F - 41.0 °F 33% 30.00 in 10.0 mi South 9.2 mph 16.1 mph N/A   Clear
1:14 PM 71.6 °F - 41.0 °F 33% 29.99 in 10.0 mi SSE 10.4 mph - N/A   Clear
1:33 PM 71.6 °F - 42.8 °F 35% 29.99 in 10.0 mi SSW 6.9 mph 17.3 mph N/A   Clear
1:54 PM 73.4 °F - 41.0 °F 31% 29.98 in 10.0 mi South 10.4 mph 18.4 mph N/A   Clear
2:13 PM 73.4 °F - 41.0 °F 31% 29.98 in 10.0 mi SSE 5.8 mph - N/A   Clear
2:34 PM 75.2 °F - 39.2 °F 27% 29.97 in 10.0 mi South 4.6 mph 18.4 mph N/A   Scattered Clouds
2:54 PM 75.2 °F - 39.2 °F 27% 29.97 in 10.0 mi SSE 9.2 mph 18.4 mph N/A   Scattered Clouds
3:14 PM 73.4 °F - 37.4 °F 27% 29.96 in 10.0 mi South 6.9 mph - N/A   Scattered Clouds
3:33 PM 77.0 °F - 39.2 °F 26% 29.96 in 10.0 mi South 9.2 mph 18.4 mph N/A   Scattered Clouds
3:54 PM 73.4 °F - 39.2 °F 29% 29.95 in 10.0 mi South 12.7 mph 18.4 mph N/A   Scattered Clouds
4:14 PM 73.4 °F - 39.2 °F 29% 29.95 in 10.0 mi South 4.6 mph - N/A   Scattered Clouds
4:34 PM 75.2 °F - 39.2 °F 27% 29.94 in 10.0 mi South 10.4 mph - N/A   Clear
4:54 PM 73.4 °F - 39.2 °F 29% 29.93 in 10.0 mi South 8.1 mph - N/A   Clear
5:13 PM 75.2 °F - 37.4 °F 25% 29.93 in 10.0 mi SW 10.4 mph - N/A   Clear
5:34 PM 73.4 °F - 37.4 °F 27% 29.93 in 10.0 mi WSW 8.1 mph - N/A   Clear
5:53 PM 73.4 °F - 39.2 °F 29% 29.93 in 10.0 mi SW 4.6 mph - N/A   Scattered Clouds
6:14 PM 73.4 °F - 39.2 °F 29% 29.93 in 10.0 mi South 4.6 mph - N/A   Clear
6:34 PM 73.4 °F - 41.0 °F 31% 29.93 in 10.0 mi South 8.1 mph - N/A   Scattered Clouds
6:53 PM 71.6 °F - 41.0 °F 33% 29.93 in 10.0 mi WSW 10.4 mph - N/A   Scattered Clouds
7:14 PM 69.8 °F - 39.2 °F 33% 29.93 in 10.0 mi West 3.5 mph - N/A   Scattered Clouds
7:34 PM 69.8 °F - 41.0 °F 35% 29.93 in 10.0 mi South 8.1 mph - N/A   Scattered Clouds
7:54 PM 68.0 °F - 42.8 °F 40% 29.93 in 10.0 mi South 9.2 mph 17.3 mph N/A Rain Rain
8:14 PM 68.0 °F - 44.6 °F 43% 29.93 in 10.0 mi WSW 3.5 mph - N/A   Mostly Cloudy
8:34 PM 66.2 °F - 42.8 °F 43% 29.93 in 10.0 mi West 4.6 mph - N/A   Mostly Cloudy
8:54 PM 66.2 °F - 44.6 °F 46% 29.94 in 10.0 mi SW 4.6 mph - N/A Rain Light Rain
9:14 PM 64.4 °F - 46.4 °F 52% 29.94 in 10.0 mi West 5.8 mph - N/A Rain Light Rain
9:34 PM 64.4 °F - 46.4 °F 52% 29.94 in 10.0 mi West 5.8 mph - N/A   Mostly Cloudy
9:54 PM 64.4 °F - 44.6 °F 49% 29.93 in 10.0 mi NW 4.6 mph - N/A   Mostly Cloudy
10:14 PM 64.4 °F - 46.4 °F 52% 29.94 in 10.0 mi SW 6.9 mph - N/A   Mostly Cloudy
10:33 PM 64.4 °F - 46.4 °F 52% 29.94 in 10.0 mi West 6.9 mph - N/A   Scattered Clouds
10:54 PM 62.6 °F - 46.4 °F 55% 29.94 in 10.0 mi West 5.8 mph - N/A   Mostly Cloudy
11:14 PM 62.6 °F - 46.4 °F 55% 29.94 in 10.0 mi Calm Calm - N/A   Scattered Clouds
11:33 PM 62.6 °F - 46.4 °F 55% 29.94 in 10.0 mi NW 4.6 mph - N/A   Clear
11:54 PM 62.6 °F - 46.4 °F 55% 29.94 in 10.0 mi Calm Calm - N/A   Scattered Clouds